When you browse on this site, cookies collect data to enhance your experience and personalize the content and advertising you see.
Visit our Privacy Policy to learn more. By continuing to use the site, you agree to this use of cookies and data.
  • In Spain
  • List of Countries
  • For 7 days
  • Water Temperature
  • Satellite Maps
  • Weather Map
  • Weather Widgets
  • user-avatar
    Login

    Hourly Weather Gerchiki

    Today, 24 May, Friday

    Time Temperature Precipitation Wind Pressure Humidity
    00:00 +15°C° 0 mm 1 mps 736 mmHg 92%
    01:00 +15°C° 0 mm 2 mps 736 mmHg 93%
    02:00 +14°C° 0 mm 1 mps 736 mmHg 94%
    03:00 +15°C° 0.4 mm 2 mps 737 mmHg 95%
    04:00 +15°C° 0.4 mm 2 mps 737 mmHg 96%
    05:00 +15°C° 0.4 mm 2 mps 737 mmHg 97%
    06:00 +16°C° 0.1 mm 3 mps 737 mmHg 94%
    07:00 +17°C° 0.1 mm 3 mps 738 mmHg 91%
    08:00 +17°C° 0 mm 3 mps 738 mmHg 89%
    09:00 +17°C° 0.2 mm 3 mps 738 mmHg 89%
    10:00 +17°C° 0.2 mm 4 mps 738 mmHg 88%
    11:00 +17°C° 0.2 mm 4 mps 738 mmHg 88%
    12:00 +18°C° 0.1 mm 4 mps 738 mmHg 86%
    13:00 +19°C° 0.1 mm 4 mps 738 mmHg 83%
    14:00 +19°C° 0.1 mm 4 mps 738 mmHg 81%
    15:00 +19°C° 0.5 mm 4 mps 738 mmHg 82%
    16:00 +19°C° 0.5 mm 4 mps 738 mmHg 82%
    17:00 +20°C° 0.5 mm 4 mps 738 mmHg 83%
    18:00 +19°C° 0.6 mm 4 mps 737 mmHg 87%
    19:00 +18°C° 0.6 mm 4 mps 737 mmHg 90%
    20:00 +17°C° 0.6 mm 4 mps 737 mmHg 93%
    21:00 +15°C° 0 mm 4 mps 737 mmHg 95%
    22:00 +15°C° 0 mm 4 mps 737 mmHg 96%
    23:00 +14°C° 0 mm 4 mps 737 mmHg 97%

    Tomorrow, 25 May, Saturday

    Time Temperature Precipitation Wind Pressure Humidity
    00:00 +14°C° 0.1 mm 4 mps 737 mmHg 97%
    01:00 +14°C° 0.1 mm 4 mps 737 mmHg 97%
    02:00 +14°C° 0.1 mm 3 mps 737 mmHg 97%
    03:00 +14°C° 1.1 mm 3 mps 736 mmHg 97%
    04:00 +14°C° 1.1 mm 3 mps 736 mmHg 97%
    05:00 +14°C° 1.1 mm 3 mps 736 mmHg 96%
    06:00 +16°C° 1 mm 3 mps 736 mmHg 95%
    07:00 +16°C° 1 mm 3 mps 736 mmHg 94%
    08:00 +17°C° 1 mm 2 mps 736 mmHg 93%
    09:00 +18°C° 0.5 mm 3 mps 735 mmHg 88%
    10:00 +19°C° 0.5 mm 3 mps 735 mmHg 84%
    11:00 +20°C° 0.5 mm 3 mps 735 mmHg 80%
    12:00 +21°C° 0.9 mm 3 mps 735 mmHg 80%
    13:00 +21°C° 0.9 mm 4 mps 735 mmHg 80%
    14:00 +21°C° 0.9 mm 4 mps 735 mmHg 80%
    15:00 +20°C° 0.4 mm 4 mps 734 mmHg 81%
    16:00 +20°C° 0.4 mm 3 mps 734 mmHg 82%
    17:00 +20°C° 0.4 mm 3 mps 734 mmHg 83%
    18:00 +19°C° 0.4 mm 3 mps 734 mmHg 85%
    19:00 +18°C° 0.4 mm 3 mps 734 mmHg 88%
    20:00 +17°C° 0.4 mm 3 mps 734 mmHg 90%
    21:00 +16°C° 0 mm 3 mps 734 mmHg 91%
    22:00 +14°C° 0 mm 3 mps 734 mmHg 92%
    23:00 +13°C° 0 mm 3 mps 734 mmHg 93%

    Day after tomorrow, 26 May, Sunday

    Time Temperature Precipitation Wind Pressure Humidity
    00:00 +12°C° 0 mm 3 mps 734 mmHg 93%
    01:00 +12°C° 0 mm 3 mps 734 mmHg 94%
    02:00 +11°C° 0 mm 3 mps 735 mmHg 95%
    03:00 +12°C° 0 mm 2 mps 735 mmHg 95%
    04:00 +12°C° 0 mm 2 mps 735 mmHg 95%
    05:00 +12°C° 0 mm 2 mps 735 mmHg 95%
    06:00 +12°C° 0 mm 3 mps 735 mmHg 90%
    07:00 +13°C° 0 mm 3 mps 736 mmHg 86%
    08:00 +16°C° 0 mm 3 mps 736 mmHg 81%
    09:00 +17°C° 0 mm 3 mps 736 mmHg 75%
    10:00 +18°C° 0 mm 3 mps 736 mmHg 69%
    11:00 +18°C° 0 mm 3 mps 736 mmHg 62%
    12:00 +19°C° 0 mm 4 mps 736 mmHg 62%
    13:00 +19°C° 0 mm 4 mps 736 mmHg 62%
    14:00 +19°C° 0 mm 4 mps 736 mmHg 62%
    15:00 +19°C° 0 mm 4 mps 736 mmHg 64%
    16:00 +19°C° 0 mm 4 mps 735 mmHg 65%
    17:00 +18°C° 0 mm 4 mps 735 mmHg 67%
    18:00 +17°C° 0 mm 4 mps 735 mmHg 72%
    19:00 +14°C° 0 mm 3 mps 735 mmHg 76%
    20:00 +13°C° 0 mm 3 mps 735 mmHg 81%
    21:00 +12°C° 0 mm 3 mps 735 mmHg 82%
    22:00 +12°C° 0 mm 3 mps 736 mmHg 84%
    23:00 +11°C° 0 mm 3 mps 736 mmHg 85%

    27 May, Monday

    Time Temperature Precipitation Wind Pressure Humidity
    00:00 +11°C° 0 mm 3 mps 736 mmHg 87%
    01:00 +11°C° 0 mm 3 mps 736 mmHg 90%
    02:00 +10°C° 0 mm 3 mps 736 mmHg 92%
    03:00 +10°C° 0 mm 3 mps 736 mmHg 92%
    04:00 +10°C° 0 mm 3 mps 737 mmHg 93%
    05:00 +10°C° 0 mm 3 mps 737 mmHg 93%
    06:00 +11°C° 0 mm 4 mps 738 mmHg 86%
    07:00 +12°C° 0 mm 4 mps 738 mmHg 78%
    08:00 +14°C° 0 mm 5 mps 738 mmHg 71%
    09:00 +14°C° 0 mm 5 mps 739 mmHg 69%
    10:00 +15°C° 0 mm 5 mps 739 mmHg 67%
    11:00 +16°C° 0 mm 5 mps 739 mmHg 65%
    12:00 +16°C° 0.1 mm 5 mps 739 mmHg 68%
    13:00 +17°C° 0.1 mm 4 mps 739 mmHg 71%
    14:00 +18°C° 0.1 mm 4 mps 739 mmHg 73%
    15:00 +18°C° 0 mm 4 mps 739 mmHg 72%
    16:00 +19°C° 0 mm 4 mps 739 mmHg 71%
    17:00 +19°C° 0 mm 4 mps 739 mmHg 69%
    18:00 +18°C° 0 mm 4 mps 739 mmHg 75%
    19:00 +17°C° 0 mm 3 mps 739 mmHg 80%
    20:00 +16°C° 0 mm 3 mps 739 mmHg 86%
    21:00 +14°C° 0 mm 3 mps 739 mmHg 86%
    22:00 +14°C° 0 mm 3 mps 739 mmHg 86%
    23:00 +13°C° 0 mm 4 mps 739 mmHg 87%

    28 May, Tuesday

    Time Temperature Precipitation Wind Pressure Humidity
    00:00 +13°C° 0 mm 3 mps 739 mmHg 87%
    01:00 +14°C° 0 mm 3 mps 740 mmHg 88%
    02:00 +14°C° 0 mm 3 mps 740 mmHg 88%
    03:00 +14°C° 0 mm 3 mps 740 mmHg 89%
    04:00 +14°C° 0 mm 3 mps 740 mmHg 91%
    05:00 +14°C° 0 mm 3 mps 740 mmHg 92%
    06:00 +16°C° 0 mm 3 mps 740 mmHg 90%
    07:00 +17°C° 0 mm 3 mps 740 mmHg 88%
    08:00 +19°C° 0 mm 3 mps 740 mmHg 86%
    09:00 +20°C° 0.2 mm 3 mps 740 mmHg 80%
    10:00 +22°C° 0.2 mm 3 mps 740 mmHg 74%
    11:00 +23°C° 0.2 mm 4 mps 740 mmHg 68%
    12:00 +23°C° 0.6 mm 4 mps 740 mmHg 70%
    13:00 +23°C° 0.6 mm 4 mps 740 mmHg 71%
    14:00 +23°C° 0.6 mm 5 mps 740 mmHg 73%
    15:00 +23°C° 0.5 mm 4 mps 740 mmHg 77%
    16:00 +22°C° 0.5 mm 4 mps 740 mmHg 80%
    17:00 +22°C° 0.5 mm 3 mps 740 mmHg 84%
    18:00 +21°C° 0 mm 4 mps 740 mmHg 85%
    19:00 +20°C° 0 mm 4 mps 740 mmHg 86%
    20:00 +20°C° 0 mm 4 mps 740 mmHg 87%
    21:00 +19°C° 0 mm 4 mps 740 mmHg 88%
    22:00 +19°C° 0 mm 5 mps 740 mmHg 88%
    23:00 +19°C° 0 mm 5 mps 739 mmHg 89%

    29 May, Wednesday

    Time Temperature Precipitation Wind Pressure Humidity
    00:00 +19°C° 0 mm 5 mps 739 mmHg 89%
    01:00 +19°C° 0 mm 5 mps 739 mmHg 89%
    02:00 +19°C° 0 mm 5 mps 739 mmHg 89%
    03:00 +17°C° 0 mm 5 mps 739 mmHg 89%
    04:00 +17°C° 0 mm 5 mps 739 mmHg 88%
    05:00 +17°C° 0 mm 5 mps 739 mmHg 88%
    06:00 +19°C° 0 mm 6 mps 739 mmHg 84%
    07:00 +20°C° 0 mm 6 mps 739 mmHg 79%
    08:00 +21°C° 0 mm 7 mps 739 mmHg 75%
    09:00 +22°C° 0 mm 7 mps 739 mmHg 73%
    10:00 +23°C° 0 mm 7 mps 739 mmHg 71%
    11:00 +24°C° 0 mm 7 mps 739 mmHg 69%
    12:00 +24°C° 0.1 mm 7 mps 738 mmHg 69%
    13:00 +26°C° 0.1 mm 7 mps 738 mmHg 69%
    14:00 +26°C° 0.1 mm 8 mps 738 mmHg 69%
    15:00 +26°C° 0.9 mm 7 mps 738 mmHg 73%
    16:00 +24°C° 0.9 mm 6 mps 738 mmHg 77%
    17:00 +23°C° 0.9 mm 6 mps 738 mmHg 81%
    18:00 +22°C° 0.7 mm 5 mps 738 mmHg 85%
    19:00 +21°C° 0.7 mm 4 mps 738 mmHg 88%
    20:00 +20°C° 0.7 mm 4 mps 738 mmHg 91%
    21:00 +19°C° 0.2 mm 3 mps 738 mmHg 92%
    22:00 +19°C° 0.2 mm 3 mps 738 mmHg 94%
    23:00 +18°C° 0.2 mm 3 mps 738 mmHg 95%
    Show more